KLM210 ESGG-ELLX

Flight info

Callsign KLM210
Flight time N/A
Altitude 31998
Route VADIN3J VADIN DCT AMRAK DCT ATPAQ DCT ABAMI Z717 NEREL/N0360F240 T855 LNO LNO3D
Aircraft B38M/M-SDE1FGHILORVWXY/HB1

Departure

Time 2026-04-30 18:47
Airport Göteborg Landvetter Airport (ESGG)

Arrival

Time N/A
Airport Luxembourg-Findel International Airport (ELLX)
Time Latitude Longitude Altitude Speed Heading
2026-04-30 18:30 57.67311 12.29560 533 ft 0 kts 251°
2026-04-30 18:36 57.67313 12.29572 533 ft 3 kts 274°
2026-04-30 18:37 57.67306 12.29602 533 ft 3 kts 340°
2026-04-30 18:37 57.67300 12.29607 533 ft 0 kts
2026-04-30 18:45 57.67464 12.29120 531 ft 13 kts 263°
2026-04-30 18:45 57.67417 12.29020 531 ft 0 kts 217°
2026-04-30 18:45 57.67413 12.29018 531 ft 0 kts 208°
2026-04-30 18:46 57.67403 12.29008 531 ft 17 kts 206°
2026-04-30 18:46 57.67000 12.28652 530 ft 107 kts 204°
2026-04-30 18:46 57.66108 12.27889 535 ft 170 kts 204°
2026-04-30 18:47 57.65046 12.26982 1388 ft 162 kts 208°
2026-04-30 18:47 57.64024 12.26157 2069 ft 161 kts 207°
2026-04-30 18:47 57.62973 12.25354 2289 ft 170 kts 213°
2026-04-30 18:47 57.62257 12.24555 2294 ft 188 kts 215°
2026-04-30 18:48 57.61040 12.23247 2328 ft 216 kts 203°
2026-04-30 18:48 57.59467 12.22853 2352 ft 240 kts 185°
2026-04-30 18:48 57.57850 12.22837 2673 ft 234 kts 183°
2026-04-30 18:48 57.56201 12.22746 3011 ft 239 kts 186°
2026-04-30 18:49 57.54557 12.22361 3364 ft 240 kts 191°
2026-04-30 18:49 57.52887 12.21993 3700 ft 243 kts 187°
2026-04-30 18:49 57.51192 12.21695 4028 ft 245 kts 187°
2026-04-30 18:49 57.49483 12.21350 4355 ft 248 kts 188°
2026-04-30 18:50 57.47763 12.20978 4681 ft 250 kts 188°
2026-04-30 18:50 57.46026 12.20554 5005 ft 251 kts 196°
2026-04-30 18:50 57.44569 12.18890 5337 ft 248 kts 226°
2026-04-30 18:50 57.43378 12.16572 5669 ft 249 kts 230°
2026-04-30 18:51 57.42217 12.14186 5996 ft 250 kts 229°
2026-04-30 18:51 57.40979 12.11896 6324 ft 252 kts 226°
2026-04-30 18:51 57.39690 12.09683 6661 ft 253 kts 225°
2026-04-30 18:51 57.38403 12.07446 6983 ft 254 kts 226°
2026-04-30 18:52 57.37126 12.05184 7287 ft 254 kts 226°
2026-04-30 18:52 57.35730 12.03192 7593 ft 256 kts 211°
2026-04-30 18:52 57.34125 12.01756 7907 ft 256 kts 205°
2026-04-30 18:52 57.32478 12.00507 8203 ft 256 kts 194°